Flag for Germany Weather past 2 weeks in Königswinter, North Rhine-Westphalia, Germany

Now
35 °F

Overcast.


Feels Like: 31 °F
Forecast: 24 / 38 °F
Wind: 5 mph from North

Location: Bonn-Hangelar

Current Time: Dec 29, 2014 at 4:22:12 PM

Latest Report: Dec 29, 2014 at 4:00 PM


Visibility: 16 mi

Pressure: 30.56 "Hg

Humidity: 93%

Dew point: 34 °F

Location of KönigswinterLocation

Historic Weather in Königswinter — Graph

°F

Königswinter temperature yesterday

Maximum temperature yesterday: 29 °F (at 12:00 AM)
Minimum temperature yesterday: 22 °F (at 9:00 AM)
Average temperature yesterday: 25 °F

Past Weeks' High & Low Weather Summary

 TemperatureHumidityPressure
High53 °F (Dec 18, 6:00 PM)100% (Dec 16, 5:00 AM)30.59 "Hg (Dec 16, 5:00 AM)
Low22 °F (Dec 28, 9:00 AM)71% (Dec 28, 2:00 PM)29.35 "Hg (Dec 27, 9:00 AM)
Average40 °F92%30.08 "Hg
* Reported Dec 14 3:00 PM — Dec 29 3:00 PM, Königswinter, Weather by CustomWeather, © 2014

Note: Actual official high and low records may vary slightly from our data, if they occured in-between our weather recording intervals... More about our weather records

Advertising

Königswinter weather history for previous 24 hours

 ConditionsComfort  
Time TempWeatherWind HumidityBarometerVisibility
3:00 PM
Dec 29
36 °FOvercast.6 mph93%30.54 "Hg16 mi
2:00 PM36 °FOvercast.6 mph96%30.52 "Hg9 mi
1:00 PM35 °FFog.5 mph100%30.52 "Hg4 mi
12:00 PM33 °FFog.5 mph100%30.52 "Hg1 mi
11:00 AM32 °FFog.6 mph100%30.52 "Hg0 mi
10:00 AM31 °FFog.6 mph100%30.51 "Hg1 mi
9:00 AM30 °FLight snow. Low clouds.7 mph100%30.49 "Hg2 mi
8:00 AM29 °FLight snow. Low clouds.8 mph100%30.48 "Hg4 mi
7:00 AM30 °FLow clouds.9 mph94%30.48 "Hg6 mi
6:00 AM28 °FLight snow. Low clouds.9 mph94%30.50 "Hg5 mi
5:00 AM28 °FLight snow. Passing clouds.6 mph91%30.52 "Hg2 mi
4:00 AM27 °FLight snow. Passing clouds.7 mph91%30.53 "Hg4 mi
3:00 AM26 °FSnow flurries. Overcast.8 mph90%30.54 "Hg4 mi
2:00 AM25 °FFog.5 mph94%30.55 "Hg3 mi
1:00 AM24 °FFog.6 mph93%30.56 "Hg3 mi
12:00 AM25 °FFog.6 mph94%30.57 "Hg4 mi
11:00 PM
Dec 28
23 °FFog.5 mph94%30.59 "Hg4 mi
10:00 PM23 °FFog.3 mph97%30.58 "Hg3 mi
9:00 PM23 °FFog.1 mph96%30.58 "Hg4 mi
8:00 PM23 °FFog.3 mph94%30.57 "Hg4 mi
7:00 PM23 °FClear.3 mph92%30.53 "Hg6 mi
6:00 PM24 °FClear.2 mph86%30.48 "Hg8 mi
5:00 PM25 °FClear.2 mph79%30.46 "Hg16 mi
4:00 PM26 °FSunny.5 mph74%30.43 "Hg16 mi
Weather by CustomWeather, © 2014

See weather overviewHow to use our weather pages